Temperature
13 14 14 14 14 14 14 14 15 15 14 14 14 14 14 14 14 14 13 13 13 13 12 12 12 12 11 11 11 11 11 11 11 10 10 10 10 10 11 11 11 11 11
13 13 14 14 14 14 14 14 14 14 14 14 14 13 13 13 13 13 13 13 13 13 12 12 12 12 12 11 11 11 11 10 10 10 9 9 10 10 11 11 11 11 11
12 13 13 13 13 14 14 14 14 14 14 13 13 13 12 12 12 13 13 13 13 12 12 12 12 12 11 11 11 11 10 10 10 10 9 9 9 10 10 11 11 11 11
12 12 13 13 13 13 13 13 13 13 13 13 13 12 12 12 12 13 13 13 13 12 12 12 12 11 11 11 11 11 10 10 9 9 9 9 9 9 9 10 10 10 11
12 12 12 13 13 13 13 13 13 13 13 13 12 12 12 12 12 12 12 12 12 12 12 12 11 11 11 11 11 10 10 10 9 9 9 9 9 8 8 9 10 10 10
11 12 12 12 12 12 12 12 13 12 12 12 12 12 12 12 12 12 12 12 12 12 12 12 11 11 11 11 10 10 10 10 9 9 9 9 8 8 8 8 9 9 10
11 11 11 12 12 12 12 12 12 12 12 12 12 12 12 11 11 11 11 12 12 12 12 11 11 11 11 11 10 10 10 10 9 9 9 9 8 8 8 8 8 8 9
10 11 11 11 11 11 11 11 11 11 11 11 11 11 11 11 11 11 11 11 11 11 11 11 11 11 11 10 10 10 10 9 9 9 8 8 8 8 8 8 8 7 8
10 10 10 11 11 11 11 10 11 11 11 11 10 10 11 10 11 10 10 10 11 11 11 11 11 11 10 10 10 9 9 9 9 8 8 8 8 8 8 8 7 7 7
10 10 10 10 10 10 10 10 10 10 10 10 10 10 10 10 10 10 10 10 10 10 10 10 10 10 10 10 9 9 9 9 8 8 8 8 8 8 7 7 7 7 7
9 9 9 9 9 10 9 9 9 9 9 9 9 9 9 9 10 10 10 10 10 10 10 10 10 10 10 9 9 9 8 8 8 8 8 8 8 7 7 7 7 7 7
9 9 9 9 9 9 9 9 9 9 8 9 9 9 9 9 9 9 9 9 9 9 9 9 9 9 9 9 8 8 8 8 8 8 8 8 7 7 7 7 7 7 7
8 8 8 8 8 8 8 8 8 8 8 8 8 8 8 8 8 8 8 8 8 8 9 9 9 9 9 8 8 8 8 8 8 7 7 7 7 7 7 7 7 7 6
8 8 8 8 7 7 7 7 7 7 7 7 7 7 7 7 7 7 8 8 8 8 8 8 8 8 8 8 7 7 7 7 7 7 7 7 7 7 7 7 7 6 6
7 7 7 7 7 7 7 7 7 7 7 6 6 6 6 6 7 7 7 7 7 7 7 7 7 7 7 7 7 7 7 7 7 7 7 7 7 7 7 7 6 6 6
7 7 6 6 6 6 6 6 6 6 6 6 6 6 6 6 6 6 6 6 6 6 6 6 7 7 7 7 7 7 7 7 7 7 7 7 7 7 7 7 6 6 6
6 6 6 6 6 5 5 5 5 5 5 5 5 5 5 5 5 5 5 5 5 6 6 6 6 6 6 6 6 6 6 6 6 6 6 6 7 7 6 6 6 6 6
5 5 5 5 5 5 5 5 5 5 4 4 4 4 4 4 5 5 5 5 5 5 5 5 5 5 6 6 6 6 6 6 6 6 6 6 6 6 6 6 6 6 6
5 5 5 4 4 4 4 4 4 4 4 4 3 3 3 3 4 4 4 4 4 4 4 4 4 4 5 5 5 5 5 5 5 5 5 6 6 6 6 5 5 5 5
5 4 4 4 4 3 3 3 3 3 3 3 3 3 3 3 3 3 3 3 3 3 3 3 4 4 4 4 4 4 4 5 5 5 5 5 5 5 5 5 5 5 5
4 4 3 3 3 3 2 2 2 2 2 2 2 2 2 2 2 2 2 2 2 2 3 3 3 3 3 4 4 4 4 4 4 4 4 4 4 4 4 4 4 4 4
3 3 3 2 2 2 2 1 2 2 1 1 1 1 2 2 2 2 2 2 2 2 2 2 2 2 3 3 3 3 3 3 3 3 3 3 3 4 4 3 3 3 3
2 2 2 1 1 1 1 1 1 1 1 1 1 1 1 1 1 1 1 1 1 1 1 1 1 2 2 2 2 2 2 2 2 2 3 3 3 3 3 3 3 3 2
2 1 1 1 1 0 0 0 0 0 -0 -0 0 0 0 0 0 0 0 0 0 0 0 0 0 1 1 1 1 1 2 2 2 2 2 2 2 2 2 2 2 2 2
1 1 0 -0 -0 -0 -0 -1 -1 -1 -1 -1 -1 -1 -1 -1 -1 -1 -1 -1 -1 -0 -0 -0 -0 0 0 0 1 1 1 1 1 1 1 1 1 1 1 1 1 1 1
-0 -0 -1 -1 -1 -1 -1 -1 -1 -2 -2 -2 -2 -2 -2 -2 -2 -2 -1 -1 -1 -1 -1 -1 -1 -1 -0 -0 0 0 1 1 1 1 1 1 1 1 1 0 1 1 0
Wind_Speed
5 4 4 4 3 3 3 4 5 5 4 5 6 6 7 7 7 9 10 11 12 12 12 10 9 10 10 10 9 7 7 6 4 3 3 5 7 9 9 8 8 10 12
5 4 3 2 3 3 4 5 5 5 5 6 6 6 5 5 7 7 9 11 11 12 12 12 11 11 10 10 10 8 6 5 5 4 2 3 4 6 9 8 9 10 8
6 5 4 3 3 4 5 5 6 6 6 6 4 3 2 3 4 7 8 10 11 12 12 12 12 11 11 11 12 11 10 8 6 5 4 4 6 3 4 7 9 9 8
5 4 4 4 4 5 5 5 5 5 6 6 5 6 6 7 8 8 8 8 10 11 12 12 13 12 11 11 12 12 10 8 7 6 6 5 3 3 3 3 5 7 8
4 5 5 4 5 4 4 5 5 5 5 5 7 7 8 8 6 5 7 8 9 11 12 13 12 13 12 12 11 12 12 10 10 7 5 6 4 4 4 5 4 4 6
4 5 5 4 4 4 4 5 5 6 5 5 7 8 9 9 7 7 7 7 7 8 11 13 13 13 12 12 12 13 13 12 11 9 7 6 5 5 6 8 7 6 5
4 4 5 5 5 6 5 5 5 6 5 5 7 8 9 9 9 9 8 8 7 8 10 12 12 12 12 12 11 11 12 13 12 12 10 10 9 5 5 7 7 6 5
4 5 5 5 6 6 6 6 6 6 6 5 6 7 7 7 7 7 7 7 7 8 8 11 13 13 12 12 11 10 11 11 13 14 13 10 10 9 7 6 6 6 6
6 7 7 6 6 7 7 6 6 6 6 6 6 6 6 6 7 7 7 7 7 7 7 9 10 12 12 12 12 10 12 11 12 13 13 12 10 9 9 8 7 8 9
7 8 7 7 7 6 6 6 5 6 6 6 6 5 6 7 7 6 8 8 8 7 7 9 10 10 11 12 12 10 11 12 12 11 13 13 11 10 9 9 8 9 10
8 8 8 8 7 6 6 6 5 6 6 6 6 6 6 6 7 7 8 8 8 8 8 9 10 10 11 11 12 13 12 13 13 12 13 15 12 11 10 9 9 9 9
7 7 8 8 8 7 6 6 5 6 6 6 6 6 6 6 6 8 8 7 7 7 8 8 9 10 11 11 12 13 12 13 14 13 14 14 12 13 11 10 11 10 10
8 8 8 8 8 8 7 6 6 6 6 6 6 6 6 6 7 7 7 7 7 7 7 7 8 10 10 11 11 12 12 13 13 13 13 14 13 14 11 11 11 10 9
8 8 8 8 8 8 8 7 7 6 6 5 5 6 6 7 7 7 6 6 6 7 7 7 8 8 9 10 11 11 12 12 13 13 13 13 14 14 13 12 12 10 9
9 8 8 7 7 8 8 7 7 6 6 6 6 7 7 7 6 6 6 6 6 7 6 7 7 7 7 8 9 10 11 11 12 12 12 12 13 15 13 11 10 10 9
9 8 7 7 7 8 8 8 7 7 6 6 6 6 7 7 6 6 6 6 6 6 6 6 7 7 7 9 10 9 9 9 10 10 10 10 11 13 14 14 13 12 11
8 8 7 7 8 7 7 7 7 7 6 6 7 7 7 7 7 7 6 6 6 6 6 6 6 7 8 9 9 10 8 8 9 9 8 7 7 10 10 12 12 12 13
8 7 6 7 7 6 7 6 6 6 6 7 7 8 7 7 7 6 6 6 6 6 6 6 6 6 7 9 9 8 7 7 7 8 8 8 7 8 9 9 9 9 9
7 6 6 5 5 6 7 6 6 6 6 7 8 8 8 8 8 7 6 6 5 5 6 5 5 6 7 7 7 6 5 5 6 6 6 7 7 8 8 9 9 8 6
6 5 5 5 5 6 6 6 7 7 7 8 8 8 8 7 7 7 7 5 5 5 5 5 5 5 6 6 6 5 3 4 4 4 5 6 6 6 7 8 8 8 7
6 5 4 5 6 6 5 6 7 7 8 8 8 8 8 7 7 6 6 6 5 4 5 5 5 4 5 6 6 5 3 3 3 3 4 4 4 4 5 6 6 7 5
5 5 4 6 6 5 5 6 7 7 8 8 8 8 8 7 6 5 5 5 5 5 5 5 5 4 4 5 5 5 4 3 3 3 3 2 3 4 4 4 4 5 5
5 5 5 6 6 5 4 6 7 7 7 7 7 8 7 6 5 5 5 5 4 4 4 4 5 5 4 4 6 6 6 5 3 2 2 2 2 3 3 3 4 4 3
5 5 5 6 7 6 5 6 6 6 6 7 7 7 6 6 6 5 4 4 4 4 4 4 5 5 4 4 3 3 3 2 1 0 1 2 2 2 2 2 2 2 3
5 5 5 7 8 7 6 6 6 6 6 7 7 6 6 6 6 5 4 4 4 4 5 4 4 4 5 6 6 5 3 1 1 1 1 2 2 2 2 2 2 2 2
5 5 6 7 7 6 7 6 5 5 6 6 6 5 5 5 5 5 5 6 6 8 9 8 7 5 6 8 7 7 4 2 2 2 2 2 2 2 2 2 2 2 2
Wind_Direction
275 281 273 272 278 279 273 267 256 239 213 207 208 214 222 224 224 224 222 218 217 213 213 217 213 207 211 215 213 214 216 218 193 200 252 257 237 235 234 231 230 232 231
298 299 292 290 281 269 263 258 253 243 222 217 216 216 223 230 230 229 225 220 219 216 215 216 216 213 214 213 212 211 211 211 189 186 199 261 267 242 233 228 229 232 229
271 288 291 285 287 277 265 260 251 246 235 224 221 224 222 235 232 231 228 223 219 218 217 216 216 214 212 215 213 209 207 213 207 199 192 205 235 267 251 233 231 229 226
269 280 291 300 292 276 275 269 262 251 242 224 213 213 220 230 233 232 233 229 222 221 219 217 215 214 214 217 216 212 211 204 212 217 220 220 193 209 265 264 239 234 233
265 274 281 281 285 282 285 280 276 266 250 229 219 220 229 235 241 239 237 234 226 222 220 218 216 216 216 217 215 213 210 209 211 210 210 224 234 228 234 262 260 248 239
284 291 301 311 312 311 304 294 285 273 259 239 227 224 234 243 246 242 239 238 232 226 224 220 218 218 218 218 216 215 212 212 213 214 211 206 206 215 221 242 251 253 249
305 312 318 320 317 317 311 306 300 288 275 252 242 236 237 237 238 243 241 242 239 232 229 221 220 220 220 219 216 216 218 215 215 217 220 221 223 212 212 230 248 254 259
314 312 305 300 302 308 308 306 302 295 289 267 256 250 246 241 242 244 244 243 243 239 236 227 223 221 219 219 216 218 220 219 220 222 221 226 228 221 219 221 230 254 258
321 316 315 308 304 307 304 300 297 295 294 283 271 263 256 250 250 251 247 248 249 250 244 235 228 223 220 218 216 220 219 220 223 224 222 226 229 225 224 223 222 232 255
329 327 323 317 308 303 301 305 301 296 295 290 278 275 265 256 256 260 257 253 253 252 250 241 232 227 223 221 219 223 221 220 225 227 225 227 230 228 223 224 226 228 240
323 321 319 315 311 311 311 308 305 303 301 298 292 286 280 274 268 263 259 258 258 253 248 244 235 231 226 223 224 226 223 223 227 228 228 229 227 228 224 222 224 229 232
318 315 314 317 319 316 310 304 302 300 294 295 294 290 286 281 277 272 268 265 264 260 253 249 241 237 231 226 225 230 228 227 228 230 229 230 226 227 224 222 225 228 228
314 316 320 323 323 322 315 307 303 298 296 299 299 298 295 289 285 281 276 273 270 268 259 253 246 242 236 232 229 229 229 229 231 230 230 230 224 228 225 222 225 228 230
302 309 314 318 320 320 318 312 310 306 306 305 303 299 297 293 291 287 284 280 277 275 267 258 252 249 242 238 236 233 232 232 233 233 231 231 227 228 222 222 223 224 226
303 306 307 309 315 318 320 319 316 316 314 311 308 304 304 303 302 298 295 293 291 285 279 271 263 259 251 246 240 237 238 236 238 237 234 231 229 230 223 221 217 215 222
295 299 302 304 307 310 314 316 318 317 315 310 305 306 309 309 306 300 297 296 291 290 282 278 266 261 262 269 261 248 241 240 239 241 238 234 228 230 222 219 214 210 215
291 294 295 293 297 304 307 309 310 314 317 315 315 314 312 311 305 302 300 296 293 294 287 277 274 270 269 275 270 258 246 241 239 239 238 239 235 227 218 217 215 215 217
286 289 293 298 303 308 310 309 313 316 317 318 320 321 318 315 310 305 297 292 291 289 285 281 279 277 281 284 277 268 249 241 240 239 236 232 234 225 213 210 211 216 220
278 278 284 293 305 313 315 318 319 321 323 324 324 322 320 317 315 312 304 300 297 292 291 291 289 283 283 284 284 279 255 245 246 246 241 235 234 223 204 201 204 210 219
289 290 301 307 309 311 318 320 318 322 322 319 317 315 313 312 312 310 308 309 303 298 302 302 297 288 287 292 288 280 254 258 256 250 245 244 233 218 196 201 202 209 211
293 301 308 309 308 314 323 317 317 315 315 317 316 315 315 314 310 311 312 312 312 314 311 308 308 303 301 304 298 285 256 248 254 254 250 242 215 200 194 201 206 207 192
299 304 308 305 307 313 317 311 309 312 318 320 319 318 317 318 319 314 314 317 321 323 318 318 319 318 316 322 309 297 279 265 244 253 245 219 190 185 191 198 190 178 171
297 304 303 304 307 311 309 302 308 318 320 321 320 319 318 319 317 313 315 319 321 322 320 317 315 320 326 327 326 313 299 285 264 239 201 179 164 165 181 179 165 161 161
298 304 307 305 307 313 311 302 310 318 318 318 319 320 320 323 325 322 320 320 320 321 321 321 317 318 322 323 327 324 321 314 290 208 138 127 117 126 132 141 147 153 154
298 301 301 300 302 311 313 315 321 325 323 320 318 321 325 324 327 330 326 320 314 315 318 313 306 308 309 317 327 328 321 300 233 83 98 95 96 100 101 100 104 111 124
296 300 299 300 303 310 312 317 321 322 320 319 319 319 322 322 326 330 333 335 332 335 336 333 325 318 321 326 335 337 337 353 57 77 99 109 116 127 127 126 116 115 125
Height
1435 1435 1435 1435 1435 1435 1435 1435 1435 1436 1437 1437 1438 1439 1440 1441 1442 1444 1445 1446 1448 1449 1450 1451 1453 1455 1456 1457 1460 1461 1463 1464 1467 1468 1467 1468 1469 1470 1470 1472 1473 1474 1475
1431 1432 1432 1432 1432 1432 1432 1432 1432 1433 1432 1433 1434 1435 1435 1436 1437 1438 1439 1441 1442 1443 1444 1445 1446 1448 1449 1451 1453 1455 1456 1458 1461 1462 1462 1461 1462 1461 1463 1465 1466 1467 1469
1429 1429 1429 1429 1429 1428 1429 1429 1429 1429 1429 1429 1430 1430 1431 1431 1432 1432 1433 1434 1435 1436 1438 1439 1440 1442 1443 1444 1446 1448 1449 1451 1454 1456 1457 1457 1455 1455 1456 1457 1458 1460 1461
1427 1427 1427 1426 1426 1426 1426 1426 1425 1425 1425 1425 1425 1425 1424 1424 1424 1426 1426 1428 1429 1430 1431 1432 1434 1435 1436 1437 1438 1440 1442 1444 1446 1448 1450 1451 1451 1451 1449 1450 1451 1453 1454
1425 1425 1425 1425 1424 1424 1423 1423 1422 1422 1421 1421 1420 1420 1420 1420 1420 1420 1421 1421 1422 1423 1424 1425 1426 1427 1429 1430 1432 1433 1435 1436 1438 1440 1441 1443 1444 1445 1445 1443 1443 1445 1446
1423 1423 1423 1422 1422 1421 1421 1420 1419 1418 1417 1416 1415 1415 1415 1414 1414 1414 1414 1414 1415 1415 1417 1418 1419 1420 1421 1422 1424 1425 1427 1428 1430 1432 1433 1435 1436 1436 1438 1437 1436 1437 1438
1421 1420 1419 1419 1418 1418 1417 1416 1414 1413 1412 1411 1410 1410 1409 1409 1408 1408 1407 1407 1407 1408 1409 1410 1411 1412 1413 1414 1416 1417 1418 1420 1421 1423 1425 1427 1428 1430 1431 1432 1431 1430 1431
1419 1418 1417 1416 1415 1414 1413 1412 1410 1409 1407 1406 1405 1405 1404 1403 1403 1402 1401 1401 1400 1400 1401 1402 1403 1404 1405 1407 1408 1409 1410 1412 1413 1415 1417 1418 1420 1422 1423 1425 1425 1424 1423
1418 1416 1415 1414 1412 1411 1409 1408 1406 1404 1403 1402 1400 1399 1398 1398 1397 1396 1395 1394 1394 1394 1394 1395 1395 1396 1397 1398 1400 1400 1402 1404 1405 1406 1408 1410 1411 1414 1415 1417 1419 1420 1417
1416 1414 1413 1411 1410 1408 1406 1404 1402 1400 1398 1397 1395 1394 1393 1392 1391 1390 1389 1388 1387 1387 1387 1387 1387 1388 1388 1390 1391 1392 1393 1395 1396 1398 1399 1401 1403 1405 1407 1408 1410 1411 1411
1415 1413 1411 1409 1406 1404 1402 1399 1397 1395 1393 1392 1390 1389 1387 1386 1385 1384 1383 1381 1380 1380 1379 1379 1380 1380 1380 1381 1382 1383 1384 1386 1387 1389 1390 1392 1394 1396 1398 1400 1401 1402 1403
1413 1411 1408 1405 1402 1399 1397 1395 1393 1391 1389 1387 1385 1383 1381 1380 1378 1377 1376 1374 1373 1373 1372 1372 1372 1372 1372 1373 1374 1375 1375 1377 1378 1380 1382 1383 1385 1387 1389 1391 1392 1393 1394
1411 1408 1406 1403 1399 1396 1394 1391 1389 1386 1384 1382 1380 1378 1376 1374 1372 1370 1369 1368 1366 1365 1365 1364 1364 1364 1364 1365 1366 1367 1367 1368 1370 1372 1373 1375 1377 1378 1380 1382 1383 1385 1386
1408 1405 1402 1399 1396 1393 1390 1388 1385 1383 1381 1378 1375 1372 1370 1368 1366 1364 1362 1361 1360 1359 1358 1357 1357 1357 1357 1357 1358 1358 1359 1360 1361 1363 1365 1367 1368 1369 1371 1373 1375 1377 1378
1404 1402 1399 1396 1394 1391 1387 1384 1381 1379 1376 1373 1370 1368 1365 1363 1360 1358 1357 1355 1354 1353 1351 1351 1350 1350 1349 1349 1350 1350 1351 1352 1353 1355 1356 1358 1360 1361 1363 1365 1366 1368 1370
1401 1398 1396 1394 1391 1388 1385 1381 1378 1375 1372 1369 1366 1363 1361 1358 1355 1353 1351 1350 1348 1346 1345 1344 1344 1343 1343 1342 1343 1344 1344 1344 1345 1346 1348 1349 1351 1353 1355 1357 1358 1360 1361
1397 1395 1393 1391 1388 1385 1382 1378 1375 1372 1368 1365 1362 1358 1356 1353 1351 1349 1346 1344 1342 1340 1339 1338 1337 1336 1336 1336 1336 1336 1337 1337 1338 1339 1340 1341 1342 1344 1346 1348 1350 1351 1353
1394 1392 1390 1387 1385 1382 1379 1375 1372 1368 1365 1361 1358 1355 1352 1349 1346 1344 1341 1339 1337 1335 1333 1332 1331 1330 1329 1330 1330 1330 1330 1330 1331 1332 1333 1334 1335 1336 1338 1340 1341 1343 1344
1391 1388 1386 1384 1381 1378 1375 1371 1368 1365 1361 1358 1354 1352 1349 1345 1342 1339 1337 1334 1332 1330 1329 1327 1326 1325 1324 1324 1324 1324 1324 1324 1325 1325 1326 1327 1327 1329 1331 1332 1334 1335 1337
1387 1384 1382 1380 1377 1374 1371 1368 1364 1361 1358 1354 1351 1348 1346 1342 1339 1335 1332 1330 1328 1326 1324 1322 1321 1320 1319 1318 1318 1318 1318 1318 1318 1319 1319 1321 1321 1322 1323 1326 1327 1328 1329
1383 1380 1378 1375 1373 1370 1367 1364 1360 1357 1354 1351 1348 1345 1341 1338 1335 1332 1329 1326 1324 1321 1320 1318 1316 1315 1314 1313 1313 1313 1313 1313 1313 1313 1313 1315 1315 1316 1318 1320 1321 1322 1325
1378 1376 1374 1371 1369 1366 1363 1360 1356 1353 1350 1347 1344 1340 1337 1334 1331 1329 1326 1323 1320 1317 1316 1314 1312 1311 1310 1309 1309 1309 1309 1309 1308 1308 1308 1309 1311 1311 1314 1315 1316 1318 1320
1374 1372 1370 1367 1365 1362 1360 1356 1353 1349 1346 1343 1340 1337 1334 1331 1328 1325 1323 1320 1317 1315 1313 1311 1309 1307 1307 1306 1305 1304 1304 1304 1303 1303 1303 1305 1306 1307 1309 1311 1312 1314 1316
1370 1368 1365 1362 1360 1358 1355 1352 1349 1346 1342 1339 1336 1333 1330 1327 1324 1322 1320 1318 1315 1313 1311 1309 1307 1305 1304 1302 1301 1300 1299 1299 1299 1299 1299 1301 1302 1303 1305 1307 1308 1310 1312
1365 1363 1361 1358 1356 1353 1351 1348 1345 1342 1338 1335 1332 1330 1327 1324 1321 1319 1318 1315 1313 1312 1310 1308 1306 1304 1301 1300 1299 1297 1296 1296 1296 1296 1296 1297 1298 1299 1301 1303 1305 1307 1308
1361 1358 1356 1354 1351 1349 1346 1344 1341 1338 1335 1332 1329 1327 1324 1322 1319 1316 1314 1313 1312 1309 1307 1306 1304 1302 1300 1298 1296 1295 1294 1293 1293 1293 1293 1294 1295 1297 1299 1301 1302 1304 1306